Probability
26 68 81 74 74 71 71 77 81 77 77 81 81 74 74 81 81 77 74 81 81 81 81 84 77 81 74 74 68 65 77 74 68 74 71 71 65 77 74 74 65 52 74
35 71 87 77 81 77 77 77 81 81 81 84 81 77 77 74 77 74 77 77 74 74 71 77 77 77 71 74 77 77 74 74 74 77 74 68 68 68 81 71 52 65 74
48 61 87 87 81 77 81 81 84 87 84 84 84 90 77 71 81 84 81 77 81 74 81 84 77 71 77 77 81 71 71 71 71 65 65 32 52 61 74 74 71 77 71
52 52 81 87 84 87 90 87 84 84 84 87 87 87 81 81 81 87 87 87 77 81 81 71 65 65 68 71 65 65 71 71 68 48 10 23 32 58 74 77 74 65 68
42 58 87 87 90 90 90 90 84 81 87 87 84 87 90 87 87 94 94 90 84 81 77 71 65 68 65 65 65 61 58 58 58 26 0 10 29 71 74 74 71 68 68
35 61 84 90 94 94 90 87 87 87 87 84 84 90 87 90 90 87 94 87 87 84 77 68 61 71 65 61 52 45 52 45 23 10 3 6 35 65 68 71 74 71 71
42 68 87 87 97 97 94 90 87 87 90 84 84 87 87 87 97 97 97 87 81 77 68 55 52 45 48 45 48 48 58 48 10 0 3 6 32 77 68 77 74 61 52
42 58 84 87 97 94 94 90 87 81 90 84 84 87 94 94 94 84 90 90 77 68 68 61 48 52 52 52 42 52 55 52 13 3 10 6 55 74 68 74 68 61 55
42 52 68 81 84 90 90 90 81 81 81 87 87 87 87 90 87 77 87 74 71 65 58 55 42 42 45 45 42 48 61 48 13 3 6 19 61 68 61 61 61 52 58
23 29 32 45 55 61 81 87 87 87 87 87 87 84 84 77 68 68 74 68 61 52 52 52 32 39 42 48 52 52 52 32 6 6 6 26 58 65 58 58 61 48 45
23 19 19 23 19 29 42 71 77 84 84 81 84 90 65 26 26 45 58 71 71 65 55 52 45 39 42 39 42 45 32 23 3 3 6 42 61 68 71 58 58 52 45
19 13 19 19 13 16 29 45 35 39 39 29 26 39 13 3 3 19 58 68 68 65 55 48 48 42 26 6 10 35 16 3 3 3 10 55 71 65 65 65 65 55 58
13 19 10 13 16 6 10 16 16 13 10 10 10 6 6 6 0 13 13 35 35 42 23 35 35 19 6 3 3 0 0 3 0 0 16 68 71 71 68 65 65 68 68
13 19 19 13 16 16 16 19 16 6 6 10 3 6 6 3 3 0 3 6 6 6 3 13 10 6 3 3 0 0 0 6 0 3 10 65 74 68 68 65 58 58 58
19 26 23 16 23 19 16 19 23 16 16 3 6 6 6 3 3 3 3 0 0 0 3 3 3 3 3 3 3 3 6 3 0 3 6 61 71 77 65 65 61 55 52
26 32 29 29 26 23 19 16 13 13 6 10 6 6 6 3 6 3 3 0 3 3 3 3 3 6 3 0 3 3 0 0 0 3 0 23 68 81 74 68 68 71 65
23 26 35 32 32 26 23 23 6 16 3 3 13 10 10 3 3 6 3 3 6 6 10 3 0 3 0 3 0 0 0 0 0 0 3 3 26 61 74 77 71 74 71
19 26 32 39 35 29 29 26 16 10 6 6 23 13 13 16 6 3 6 3 3 3 3 3 3 3 0 0 0 0 0 0 0 0 3 3 3 6 35 74 71 71 74
35 35 29 32 39 39 35 29 19 23 23 16 23 19 19 19 13 10 6 3 3 3 6 3 3 3 3 0 3 3 3 3 3 3 0 3 3 3 3 23 65 61 61
42 42 45 35 35 39 32 32 32 32 23 23 23 19 16 23 19 6 3 3 3 6 6 3 3 3 3 3 3 3 3 3 3 0 0 0 0 0 3 3 10 32 58
45 45 48 42 42 39 35 35 32 29 23 13 13 13 13 13 13 10 6 3 6 10 6 6 6 6 6 3 0 0 0 0 0 0 0 0 0 0 0 3 3 3 16
48 48 45 42 35 39 45 42 39 29 26 23 13 10 13 13 10 13 6 6 6 10 10 6 3 3 3 0 0 0 0 0 0 0 0 0 0 0 0 0 3 3 3
48 48 48 48 48 48 45 45 39 29 32 23 16 16 19 13 10 10 10 6 6 6 6 6 3 3 3 0 0 0 0 0 0 0 0 0 0 3 3 3 3 3 3
55 52 48 55 55 52 45 42 35 32 32 26 23 19 19 13 16 6 3 3 3 0 0 3 10 6 3 3 0 0 0 0 0 0 0 0 0 0 0 0 3 0 0
58 61 55 55 55 52 55 45 39 29 26 29 26 23 19 19 16 16 6 10 6 3 0 3 6 10 3 3 3 0 0 0 0 0 0 0 0 0 0 0 0 3 3
55 58 55 58 55 58 52 48 45 35 35 35 29 13 19 26 26 19 16 16 13 10 6 3 6 13 13 10 6 6 0 0 0 0 0 0 0 0 0 0 0 0 0
Height
5874 5873 5873 5873 5872 5873 5873 5873 5873 5874 5875 5875 5876 5876 5877 5877 5878 5878 5879 5879 5879 5879 5880 5880 5880 5880 5880 5881 5882 5883 5884 5885 5885 5886 5887 5887 5888 5888 5889 5889 5889 5889 5890
5874 5874 5873 5873 5873 5873 5873 5874 5874 5874 5875 5875 5876 5877 5877 5878 5878 5879 5879 5879 5880 5880 5880 5881 5881 5881 5881 5882 5883 5884 5885 5885 5886 5887 5888 5888 5888 5889 5889 5890 5890 5890 5891
5875 5874 5874 5873 5874 5874 5874 5874 5874 5875 5875 5876 5876 5877 5877 5878 5879 5879 5879 5880 5880 5881 5881 5881 5881 5882 5882 5883 5884 5884 5885 5886 5886 5887 5888 5889 5889 5890 5890 5890 5891 5891 5891
5875 5875 5875 5874 5874 5875 5875 5875 5875 5875 5875 5876 5876 5877 5877 5878 5879 5879 5880 5880 5880 5881 5881 5881 5881 5882 5883 5883 5884 5885 5886 5886 5887 5888 5889 5889 5890 5890 5891 5891 5891 5892 5892
5876 5876 5876 5875 5876 5875 5875 5875 5875 5875 5874 5875 5876 5877 5878 5878 5879 5880 5880 5880 5881 5881 5882 5882 5882 5882 5882 5883 5884 5885 5886 5887 5888 5888 5889 5890 5890 5891 5891 5892 5892 5892 5893
5878 5878 5877 5877 5876 5876 5876 5876 5875 5874 5873 5873 5875 5877 5878 5879 5880 5880 5880 5881 5881 5881 5882 5882 5882 5883 5883 5884 5885 5886 5887 5887 5888 5889 5889 5890 5891 5891 5892 5892 5892 5893 5893
5880 5879 5878 5878 5878 5877 5877 5876 5875 5874 5873 5873 5875 5877 5878 5879 5880 5881 5881 5882 5882 5881 5882 5883 5883 5883 5884 5885 5885 5886 5887 5887 5888 5889 5890 5890 5891 5892 5892 5892 5893 5893 5893
5881 5881 5880 5879 5879 5879 5878 5877 5877 5875 5874 5874 5876 5878 5880 5880 5881 5882 5882 5882 5883 5882 5883 5883 5883 5884 5884 5885 5886 5886 5887 5888 5888 5889 5890 5891 5891 5892 5892 5893 5893 5893 5893
5883 5882 5881 5881 5880 5880 5879 5879 5878 5877 5876 5876 5878 5880 5881 5882 5882 5883 5883 5883 5884 5884 5884 5884 5884 5884 5885 5885 5886 5887 5887 5888 5888 5889 5890 5891 5892 5892 5892 5893 5893 5893 5894
5884 5883 5882 5882 5881 5881 5881 5880 5880 5879 5879 5879 5880 5881 5882 5882 5883 5883 5884 5884 5884 5884 5884 5885 5885 5885 5885 5886 5886 5887 5888 5888 5888 5889 5890 5891 5891 5892 5892 5893 5893 5894 5894
5886 5885 5884 5883 5883 5882 5882 5882 5881 5881 5881 5881 5882 5882 5883 5883 5883 5884 5884 5885 5885 5885 5885 5885 5885 5886 5886 5887 5887 5887 5888 5889 5889 5889 5890 5890 5891 5892 5892 5893 5893 5894 5894
5887 5886 5885 5884 5884 5884 5883 5883 5883 5883 5883 5883 5883 5883 5884 5884 5884 5884 5885 5885 5885 5885 5886 5886 5886 5886 5887 5887 5887 5888 5888 5889 5889 5889 5890 5891 5891 5892 5892 5893 5893 5894 5894
5888 5887 5887 5886 5885 5885 5885 5884 5884 5884 5884 5884 5884 5884 5885 5885 5885 5885 5885 5886 5886 5886 5886 5886 5886 5887 5887 5888 5888 5888 5888 5889 5889 5889 5890 5891 5891 5891 5892 5892 5893 5893 5894
5890 5889 5888 5887 5887 5886 5886 5886 5886 5886 5886 5886 5885 5885 5885 5886 5886 5886 5886 5886 5886 5886 5887 5887 5887 5887 5887 5888 5888 5888 5888 5889 5889 5889 5890 5890 5891 5891 5891 5892 5892 5893 5893
5891 5891 5890 5889 5888 5888 5887 5887 5887 5887 5887 5887 5887 5886 5886 5886 5886 5886 5886 5886 5886 5887 5887 5887 5887 5887 5888 5888 5888 5888 5888 5888 5888 5889 5889 5889 5890 5890 5891 5891 5892 5892 5892
5893 5891 5891 5890 5889 5889 5889 5889 5888 5888 5888 5888 5887 5887 5887 5887 5887 5887 5886 5886 5887 5887 5887 5887 5887 5887 5888 5888 5888 5888 5888 5888 5888 5888 5888 5889 5889 5889 5890 5890 5891 5891 5891
5894 5892 5891 5891 5891 5890 5890 5890 5889 5889 5889 5888 5888 5888 5887 5887 5887 5887 5886 5886 5887 5887 5887 5887 5887 5887 5887 5887 5887 5887 5887 5887 5887 5887 5888 5888 5888 5888 5889 5889 5889 5890 5890
5896 5894 5893 5893 5892 5891 5891 5890 5890 5890 5889 5888 5888 5888 5888 5887 5887 5886 5886 5886 5886 5886 5886 5887 5887 5887 5886 5886 5887 5887 5887 5887 5887 5887 5887 5887 5887 5887 5887 5888 5888 5888 5888
5898 5897 5895 5894 5893 5892 5892 5891 5891 5890 5890 5889 5889 5888 5888 5887 5887 5886 5885 5885 5885 5886 5886 5886 5886 5886 5886 5886 5886 5886 5885 5886 5885 5885 5885 5886 5886 5886 5886 5886 5886 5886 5886
5900 5898 5897 5896 5895 5894 5893 5892 5892 5891 5890 5889 5889 5888 5888 5887 5886 5886 5885 5885 5885 5885 5885 5885 5885 5885 5884 5884 5884 5884 5884 5884 5884 5883 5883 5884 5883 5883 5883 5883 5883 5883 5883
5902 5900 5899 5897 5896 5895 5894 5893 5892 5891 5890 5889 5889 5888 5887 5886 5886 5885 5885 5884 5884 5884 5883 5883 5883 5883 5883 5883 5883 5883 5882 5882 5882 5882 5881 5881 5881 5880 5880 5880 5880 5881 5880
5904 5902 5900 5899 5897 5896 5895 5894 5892 5891 5890 5889 5888 5887 5886 5885 5885 5884 5883 5883 5883 5882 5882 5881 5881 5881 5881 5881 5881 5880 5880 5881 5880 5879 5879 5878 5877 5877 5877 5877 5877 5877 5877
5905 5904 5902 5900 5899 5897 5896 5894 5893 5891 5890 5889 5888 5887 5886 5884 5883 5883 5882 5881 5881 5881 5880 5879 5879 5879 5878 5878 5878 5878 5878 5877 5877 5876 5875 5875 5874 5873 5873 5873 5873 5873 5872
5907 5905 5903 5902 5900 5898 5896 5895 5893 5892 5890 5889 5887 5886 5885 5884 5882 5881 5880 5880 5879 5878 5878 5877 5876 5876 5876 5875 5875 5875 5875 5874 5874 5873 5872 5871 5870 5869 5869 5868 5868 5868 5868
5908 5906 5904 5903 5901 5899 5897 5895 5893 5891 5890 5888 5887 5885 5884 5882 5881 5880 5879 5878 5877 5876 5875 5874 5874 5873 5872 5872 5871 5871 5870 5870 5870 5869 5868 5867 5866 5865 5864 5864 5863 5863 5863
5909 5907 5905 5903 5901 5899 5896 5894 5893 5891 5890 5888 5886 5884 5883 5881 5880 5878 5877 5876 5875 5874 5873 5872 5871 5870 5869 5869 5868 5867 5867 5866 5865 5864 5863 5863 5862 5861 5860 5859 5859 5858 5858
Wind_Speed
6 6 5 5 5 5 4 4 4 4 4 5 4 4 4 4 6 6 6 6 6 6 6 7 8 8 9 10 10 10 10 10 10 9 9 8 8 8 7 7 8 8 8
6 6 5 4 5 4 4 5 4 4 4 4 3 4 4 5 5 5 5 5 6 6 6 6 7 7 8 9 10 10 9 9 9 9 8 8 8 7 7 7 7 7 7
7 6 5 5 6 5 5 5 5 5 4 4 4 4 5 5 5 5 5 5 5 6 6 6 7 7 8 9 9 9 9 8 8 8 8 8 7 7 6 7 7 6 7
7 7 7 6 6 5 4 5 5 5 4 3 4 5 5 5 4 5 5 5 5 6 5 5 7 7 8 8 9 9 8 8 8 8 8 8 7 6 6 6 6 6 7
8 7 6 6 6 6 5 5 4 4 3 4 4 5 5 4 4 4 5 5 5 6 6 5 6 7 8 8 8 9 8 8 8 7 7 7 7 6 6 6 6 7 6
10 8 7 6 6 6 5 5 5 4 4 4 5 6 5 4 4 4 5 5 5 6 6 6 6 8 9 9 9 9 8 8 8 7 7 7 6 6 7 7 6 6 6
10 9 8 7 6 6 6 6 5 5 5 5 6 6 6 5 5 5 5 5 5 5 6 6 7 7 8 8 8 8 8 8 7 7 6 6 6 6 7 6 6 6 7
10 10 10 8 7 6 7 7 6 6 6 7 7 7 6 6 5 5 5 5 5 5 6 7 7 7 7 7 7 7 7 7 7 6 6 6 6 7 6 6 7 7 8
10 10 10 10 8 8 8 8 8 8 8 8 8 7 6 6 5 5 5 5 5 5 5 6 6 7 7 7 6 7 7 7 7 7 6 7 7 7 7 6 8 7 7
10 10 9 10 9 8 8 8 8 8 9 8 8 7 6 5 5 5 5 5 5 5 5 5 6 7 6 6 6 7 7 6 6 7 7 7 7 7 6 7 7 7 7
10 10 10 10 9 9 9 9 8 9 9 8 7 7 6 6 5 5 5 5 5 4 5 5 5 6 5 5 6 6 6 5 5 6 7 7 7 6 6 6 6 6 7
11 10 9 9 9 8 8 8 8 8 8 7 7 7 6 6 5 5 5 5 5 4 4 4 5 5 5 5 6 6 5 5 5 5 6 7 7 6 6 5 6 6 7
12 11 10 9 9 8 8 8 8 7 7 6 6 6 6 5 5 4 4 4 4 4 4 4 4 4 4 5 5 5 5 5 5 5 6 6 7 6 6 6 6 6 6
12 11 11 10 9 9 8 8 8 7 7 6 6 6 5 4 4 4 4 4 4 4 4 4 4 4 4 4 4 4 4 4 5 5 6 6 6 6 6 6 6 6 6
12 12 11 10 9 9 8 8 7 6 6 6 5 5 4 4 3 3 3 4 4 4 4 4 3 3 4 4 4 3 4 4 4 5 6 6 6 6 6 6 6 6 6
12 11 11 10 9 8 8 7 6 5 5 5 4 4 3 3 2 2 2 2 2 2 3 3 3 3 3 3 4 3 4 5 5 5 6 6 6 7 7 7 7 6 6
13 11 11 10 10 9 8 7 6 5 5 4 4 3 3 2 1 1 2 2 2 2 3 3 3 3 3 4 4 4 5 5 5 5 6 7 7 7 7 7 7 8 7
14 13 12 11 10 9 9 8 7 6 5 4 3 3 3 2 1 0 2 2 2 3 3 3 3 4 4 5 4 4 5 6 6 6 6 7 7 7 8 9 9 9 9
15 14 13 12 11 10 9 8 7 6 5 5 4 4 3 3 2 2 1 2 2 3 3 4 4 5 5 5 5 5 6 6 7 8 8 8 8 9 10 10 10 10 11
15 14 13 12 11 10 10 9 8 6 5 5 4 3 2 2 2 2 1 1 2 3 4 4 4 5 6 6 6 7 7 7 8 9 9 10 11 11 11 12 12 12 12
14 14 13 12 12 11 10 9 8 7 5 4 3 3 3 3 2 2 2 2 3 3 4 5 5 6 6 7 8 8 9 9 9 10 11 12 12 12 13 13 13 14 14
14 13 13 12 11 11 10 9 8 7 6 5 5 4 5 4 3 3 4 4 4 5 5 6 7 7 7 8 8 9 10 10 11 11 11 12 13 13 14 15 15 15 17
14 13 13 12 11 10 9 9 8 8 7 6 5 5 5 5 4 4 5 5 6 7 7 8 8 9 9 10 10 11 11 12 13 13 13 14 15 15 16 16 17 17 17
13 13 13 12 12 11 10 9 9 8 8 7 7 6 6 6 5 5 5 6 7 8 8 9 9 10 11 11 12 13 14 14 15 15 16 16 16 17 18 18 18 18 18
12 13 12 12 12 11 10 10 10 9 8 8 8 8 8 7 6 6 6 6 7 8 8 9 10 11 12 12 12 13 14 15 16 17 17 17 18 18 19 19 20 20 20
11 11 11 11 11 11 11 10 10 10 9 9 9 9 9 9 8 7 7 7 8 8 9 10 11 11 11 12 13 13 14 14 15 16 17 18 19 19 19 19 20 20 20
Wind_Direction
71 73 78 85 90 97 104 107 117 122 127 136 143 148 150 154 148 143 142 144 146 145 139 140 137 136 137 142 143 143 142 141 139 138 137 132 130 131 131 132 131 126 125
70 71 72 86 93 98 103 104 106 123 129 136 143 152 153 153 151 150 148 147 150 151 144 145 143 140 139 141 144 145 145 143 140 142 141 136 134 134 138 135 131 126 126
68 67 71 88 96 95 103 106 108 116 120 125 139 148 152 156 159 155 153 149 150 157 155 151 148 147 145 145 147 149 148 148 144 146 143 140 140 145 143 138 137 132 129
71 73 77 78 87 92 99 108 120 120 124 130 139 143 149 154 158 153 153 153 152 155 158 153 153 153 153 152 152 151 149 150 149 149 148 145 143 146 144 140 139 136 132
72 77 74 78 85 87 94 109 117 125 133 138 140 145 149 146 143 144 144 146 152 152 152 151 156 158 155 154 157 156 155 154 154 153 153 149 145 147 146 145 142 140 140
66 70 76 81 82 81 87 103 106 108 124 134 138 142 142 137 139 145 151 151 152 151 152 153 153 160 161 161 159 160 160 159 159 156 154 153 153 154 153 148 145 147 149
64 65 71 83 85 83 83 92 95 91 107 119 129 133 131 128 131 139 147 153 151 152 158 156 152 160 163 162 164 166 168 167 164 159 158 156 153 154 154 156 154 154 153
63 63 65 72 76 77 80 83 90 88 99 109 121 124 124 125 127 129 140 145 147 143 152 158 158 160 159 161 164 168 172 174 169 164 161 156 154 154 156 157 153 146 148
62 63 66 70 69 72 76 81 85 86 94 104 111 117 122 123 124 124 130 140 143 147 146 147 156 156 157 158 160 162 164 168 160 162 165 163 159 155 158 157 151 148 149
63 64 67 71 69 73 75 79 85 88 95 102 105 110 117 119 122 124 131 139 141 141 141 139 148 148 148 150 152 157 162 169 164 160 166 166 163 163 164 167 165 158 156
61 63 63 68 69 72 74 79 88 95 99 103 104 107 110 113 118 120 129 135 140 141 143 142 146 145 147 154 159 158 159 165 163 164 168 166 165 168 167 170 174 168 168
62 63 65 69 71 76 79 81 87 94 97 98 101 105 107 110 117 120 126 134 139 143 148 149 155 158 159 162 163 165 164 168 172 173 174 175 175 178 176 175 177 179 177
63 64 67 70 71 76 83 85 87 90 96 98 100 104 109 111 115 115 128 137 143 146 148 152 161 166 168 170 172 175 179 179 181 182 185 185 187 187 187 187 188 188 189
63 64 67 70 71 72 77 82 85 90 96 97 98 100 103 105 109 113 123 137 143 148 152 155 160 170 171 172 181 187 193 191 190 195 195 191 194 194 197 200 198 201 201
61 64 67 71 74 74 74 79 82 85 86 91 94 95 99 106 113 119 122 132 140 151 158 156 154 167 175 185 197 209 216 208 203 202 201 202 202 204 207 211 208 209 212
54 59 62 66 70 74 76 78 75 73 73 81 84 91 88 96 116 132 132 144 156 167 166 168 175 184 184 204 216 220 225 222 216 208 206 207 209 212 212 216 217 218 224
53 56 60 62 67 72 76 76 73 74 80 81 76 78 82 85 108 153 156 182 202 203 193 193 205 208 208 220 229 234 231 225 217 214 214 217 217 218 221 224 227 230 235
53 54 56 61 65 68 70 71 73 73 73 72 72 66 64 65 61 203 192 197 205 208 213 219 227 228 222 227 236 239 231 227 226 227 226 229 228 230 231 233 236 238 240
52 52 55 58 59 61 63 65 68 70 70 70 71 68 61 56 49 37 188 208 226 227 226 230 235 235 236 239 240 242 243 241 238 237 239 241 243 244 244 243 244 242 244
49 50 52 52 53 54 55 58 59 60 62 64 63 60 49 42 32 10 318 235 240 242 239 240 239 242 249 252 251 253 255 254 250 247 252 253 251 250 251 250 251 251 249
45 45 47 49 49 48 49 49 49 47 47 42 26 12 357 346 338 326 317 279 262 258 252 251 251 253 257 258 257 257 259 259 259 258 258 259 259 257 255 254 253 254 253
43 43 43 43 43 42 42 40 40 38 36 30 21 9 358 346 326 316 311 297 285 277 269 260 256 257 259 261 260 258 258 260 261 261 263 264 263 261 259 255 254 255 255
41 41 41 40 38 36 35 35 31 25 23 19 12 3 352 346 335 320 306 294 285 277 272 271 267 263 263 262 262 263 263 262 265 266 266 267 265 263 262 258 255 256 256
36 36 37 37 34 31 31 30 24 19 17 13 9 1 347 337 332 322 307 297 289 285 278 274 271 268 269 269 267 267 269 269 268 269 270 269 268 268 266 262 260 261 261
30 30 30 30 28 24 23 25 20 16 15 10 4 358 349 342 334 323 311 303 296 291 285 283 276 273 272 273 275 276 276 274 271 270 270 270 269 269 269 267 266 266 265
22 21 19 19 20 17 14 17 17 14 11 7 2 358 351 343 335 326 319 313 305 299 295 289 285 281 279 277 278 278 280 279 276 275 274 272 272 270 269 267 268 268 267